Land O' Lakes, MI

9:18 PM CDT on April 23, 2017 (GMT -0500)
Kings Land O'Lakes

Weather History for KLNL - August, 2014

Change the Weather History Date:

Thursday, August 21, 2014

  Actual Average (KEGV) Record (KEGV)
Temperature  
Mean Temperature 62 °F -  
Max Temperature 69 °F 69 °F 85 °F (2013)
Min Temperature 56 °F 49 °F 32 °F (2004)
Degree Days  
Heating Degree Days 2    
Growing Degree Days 12 (Base 50)    
Moisture  
Dew Point 62 °F    
Average Humidity 90    
Maximum Humidity 100    
Minimum Humidity 77    
Precipitation  
Precipitation 0.00 in - - ()
Sea Level Pressure  
Sea Level Pressure 29.98 in    
Wind  
Wind Speed 2 mph (SE)    
Max Wind Speed 9 mph    
Max Gust Speed -    
Visibility 10 miles    
Events      
Averages and records for this station are not official NWS values.
T = Trace of Precipitation, MM = Missing Value Source: NWS Daily Summary

Daily Weather History Graph

Daily Weather History Graph

Search for Another Location

Airport or City:

Trip Planner

Search our weather history database for the weather conditions in past years. The results will help you decide how hot, cold, wet, or windy it might be!

Date:

Astronomy

Aug. 21, 2014 Rise Set
Actual Time 6:03 AM CDT 7:55 PM CDT
Civil Twilight 5:31 AM CDT 8:27 PM CDT
Nautical Twilight 4:52 AM CDT 9:06 PM CDT
Astronomical Twilight 4:08 AM CDT 9:49 PM CDT
Moon 2:28 AM CDT (8/21) 5:28 PM CDT (8/21)
Length of Visible Light 14h 55m
Length of Day
13h 51m
Waning Crescent, 13% of the Moon is Illuminated
Aug 21
Waning Crescent
Aug 25
New
Sep 2
First Quarter
Sep 8
Full
Sep 15
Last Quarter

Hourly Weather History & Observations

Time (CDT) Temp. Dew Point Humidity Pressure Visibility Wind Dir Wind Speed Gust Speed Precip Events Conditions
12:15 AM 61.2 °F 60.6 °F 98% 30.00 in 10.0 mi Calm Calm - N/A   Overcast
12:35 AM 61.3 °F 60.8 °F 98% 30.00 in 10.0 mi Calm Calm - N/A   Overcast
12:55 AM 61.2 °F 60.8 °F 99% 29.99 in 10.0 mi Calm Calm - N/A   Overcast
1:15 AM 61.0 °F 60.4 °F 98% 30.00 in 10.0 mi Calm Calm - N/A   Overcast
1:35 AM 61.2 °F 60.8 °F 99% 29.99 in 10.0 mi Calm Calm - N/A   Overcast
1:55 AM 61.3 °F 60.8 °F 98% 29.99 in 10.0 mi Calm Calm - N/A   Overcast
2:15 AM 61.0 °F 60.4 °F 98% 30.00 in 10.0 mi Calm Calm - N/A   Overcast
2:35 AM 61.3 °F 61.0 °F 99% 30.00 in 10.0 mi Calm Calm - N/A   Overcast
2:55 AM 61.3 °F 60.8 °F 98% 29.98 in 10.0 mi Calm Calm - N/A   Overcast
3:15 AM 61.2 °F 60.8 °F 99% 29.98 in 10.0 mi Calm Calm - N/A   Overcast
3:35 AM 60.8 °F 60.1 °F 97% 29.98 in 10.0 mi Calm Calm - N/A   Mostly Cloudy
3:55 AM 58.8 °F 58.3 °F 98% 29.98 in 5.0 mi Calm Calm - N/A   Overcast
4:15 AM 59.4 °F 59.2 °F 99% 29.98 in 10.0 mi Calm Calm - N/A   Overcast
5:15 AM 59.2 °F 58.8 °F 99% 29.97 in 10.0 mi Calm Calm - N/A   Clear
5:35 AM 56.5 °F 56.1 °F 99% 29.98 in 0.8 mi Calm Calm - N/A   Mostly Cloudy
5:55 AM 58.8 °F 58.8 °F 100% 29.98 in 10.0 mi ESE 3.5 mph - N/A   Mostly Cloudy
6:15 AM 59.5 °F 59.5 °F 100% 29.99 in 10.0 mi Calm Calm - N/A   Overcast
6:35 AM 60.1 °F 60.1 °F 100% 29.98 in 10.0 mi Calm Calm - N/A   Overcast
6:55 AM 60.8 °F 60.8 °F 100% 29.97 in 10.0 mi ESE 3.5 mph - N/A   Overcast
7:15 AM 61.3 °F 61.3 °F 100% 30.00 in 10.0 mi Calm Calm - N/A   Overcast
7:35 AM 61.9 °F 61.3 °F 98% 30.00 in 10.0 mi SSE 3.5 mph - N/A   Overcast
7:55 AM 62.6 °F 61.0 °F 94% 30.00 in 10.0 mi SSE 3.5 mph - N/A   Overcast
8:15 AM 63.1 °F 61.0 °F 93% 30.01 in 10.0 mi SSE 4.6 mph - N/A   Overcast
8:55 AM 63.9 °F 61.0 °F 90% 30.00 in 10.0 mi SSE 4.6 mph - N/A   Overcast
9:15 AM 65.3 °F 60.8 °F 85% 29.98 in 10.0 mi ESE 5.8 mph - N/A   Overcast
9:55 AM 66.4 °F 61.2 °F 83% 29.99 in 10.0 mi SE 3.5 mph - N/A   Overcast
10:15 AM 67.1 °F 61.0 °F 81% 29.99 in 10.0 mi SE 5.8 mph - N/A   Overcast
10:35 AM 68.5 °F 61.3 °F 78% 29.97 in 10.0 mi ESE 5.8 mph - N/A   Overcast
11:15 AM 68.4 °F 61.3 °F 78% 29.96 in 10.0 mi SE 6.9 mph - N/A   Mostly Cloudy
11:35 AM 69.3 °F 61.9 °F 77% 29.97 in 10.0 mi SE 4.6 mph - N/A   Mostly Cloudy
11:55 AM 68.9 °F 61.9 °F 78% 29.97 in 10.0 mi SSE 8.1 mph - N/A   Overcast
12:15 PM 68.9 °F 62.1 °F 79% 29.97 in 10.0 mi SSE 4.6 mph - N/A   Overcast
12:35 PM 68.9 °F 62.6 °F 80% 29.97 in 10.0 mi SSE 5.8 mph - N/A   Overcast
12:55 PM 68.9 °F 62.6 °F 80% 29.97 in 10.0 mi SE 6.9 mph - N/A   Overcast
1:15 PM 69.1 °F 62.8 °F 80% 29.97 in 10.0 mi SE 6.9 mph - N/A   Overcast
1:35 PM 68.9 °F 62.6 °F 80% 29.96 in 10.0 mi SSE 9.2 mph - N/A   Overcast
1:55 PM 68.4 °F 62.8 °F 82% 29.96 in 10.0 mi SSE 5.8 mph - N/A   Overcast
2:15 PM 68.4 °F 63.0 °F 83% 29.96 in 10.0 mi SE 8.1 mph - N/A   Overcast
2:35 PM 68.4 °F 63.1 °F 83% 29.96 in 10.0 mi ESE 8.1 mph - N/A   Overcast
2:55 PM 68.4 °F 63.1 °F 83% 29.96 in 10.0 mi SE 6.9 mph - N/A   Overcast
3:15 PM 68.9 °F 63.3 °F 82% 29.96 in 10.0 mi ESE 6.9 mph - N/A   Overcast
3:35 PM 68.9 °F 63.5 °F 83% 29.96 in 10.0 mi ESE 4.6 mph - N/A   Overcast
3:55 PM 68.9 °F 63.5 °F 83% 29.96 in 10.0 mi SSE 6.9 mph - N/A   Overcast
4:15 PM 69.1 °F 63.7 °F 83% 29.96 in 10.0 mi SE 6.9 mph - N/A   Overcast
4:55 PM 68.5 °F 63.5 °F 84% 29.96 in 10.0 mi SE 4.6 mph - N/A   Overcast
5:15 PM 68.4 °F 63.5 °F 84% 29.96 in 10.0 mi SSE 4.6 mph - N/A   Overcast
5:35 PM 68.4 °F 63.7 °F 85% 29.96 in 10.0 mi SE 6.9 mph - N/A   Overcast
5:55 PM 68.4 °F 63.9 °F 85% 29.96 in 10.0 mi SE 6.9 mph - N/A   Overcast
6:15 PM 68.0 °F 63.5 °F 85% 29.96 in 10.0 mi SSE 6.9 mph - N/A   Overcast
6:35 PM 68.0 °F 63.5 °F 85% 29.96 in 10.0 mi SSE 8.1 mph - N/A   Overcast
6:55 PM 67.5 °F 63.5 °F 87% 29.96 in 10.0 mi SE 6.9 mph - N/A   Overcast
7:15 PM 66.9 °F 63.3 °F 88% 29.96 in 10.0 mi SE 6.9 mph - N/A   Overcast
7:35 PM 66.6 °F 63.1 °F 89% 29.97 in 10.0 mi SSE 6.9 mph - N/A   Overcast
7:55 PM 66.4 °F 63.1 °F 89% 29.97 in 10.0 mi SSE 5.8 mph - N/A   Overcast
8:15 PM 66.2 °F 63.1 °F 90% 29.97 in 10.0 mi SSE 5.8 mph - N/A   Overcast
8:35 PM 65.8 °F 63.0 °F 90% 29.97 in 10.0 mi SSE 4.6 mph - N/A   Overcast
8:55 PM 65.7 °F 62.8 °F 90% 29.97 in 10.0 mi SSE 4.6 mph - N/A   Overcast
9:35 PM 65.5 °F 62.6 °F 90% 29.98 in 10.0 mi Calm Calm - N/A   Overcast
9:55 PM 65.3 °F 62.6 °F 91% 29.98 in 10.0 mi SSE 4.6 mph - N/A   Overcast
10:15 PM 65.1 °F 62.4 °F 91% 29.98 in 10.0 mi Calm Calm - N/A   Overcast
10:35 PM 64.9 °F 62.6 °F 92% 29.98 in 10.0 mi Calm Calm - N/A   Overcast
11:15 PM 64.8 °F 62.2 °F 92% 29.97 in 10.0 mi SSE 3.5 mph - N/A   Overcast
11:35 PM 64.8 °F 62.2 °F 92% 29.97 in 10.0 mi Calm Calm - N/A   Overcast
11:55 PM 64.6 °F 62.2 °F 92% 29.97 in 10.0 mi Calm Calm - N/A   Overcast